sat.trackr.live / text

‹ back to catalog

STARLINK-31586

NORAD 59205 · 2024-046E

PAYLOAD ACTIVE UNKNOWN

§ Identity

Operator
Country
US
Launch date
2024-03-11
Launch site
AFWTR
Launch vehicle
Mass (kg)
RCS (m²)

Purposes: comms

External: N2YO · Heavens-Above · Gunter

§ Orbital elements

Epoch: 2026-05-25T01:37:27.958944Z

Period
94.11 min
Inclination
53.1595°
Eccentricity
0.0001054
Mean motion
15.30196706 rev/d
Perigee alt
474.5 km
Apogee alt
475.9 km
Semi-major
6,853.4 km
B*
4.3786e-6
RAAN
160.5493°
Arg perigee
73.6964°
Mean anomaly
286.4152°
Rev number
12,474

§ Raw data

STARLINK-315861 59205U 24046E   26145.06768471 -.00000229  00000+0  43786-5 0  99902 59205  53.1595 160.5493 0001054  73.6964 286.4152 15.30196706124748

JSON: /api/v1/satellites/59205 · /tle

For live sub-satellite position, see the globe view (requires WebGL).

§ Visibility from observer

Set your observer location to see the next 7 days of passes ≥ 10°. The values pass through the URL so the page stays shareable.

No JS? Fill the form by hand. The geolocation button needs JavaScript.